TimeCDT,TemperatureF,Dew PointF,Humidity,Sea Level PressureIn,VisibilityMPH,Wind Direction,Wind SpeedMPH,Gust SpeedMPH,PrecipitationIn,Events,Conditions,WindDirDegrees,DateUTC
12:53 AM,61.0,48.9,64,29.91,10.0,Calm,Calm,-,N/A,,Clear,0,2012-09-06 05:53:00
1:53 AM,60.1,48.9,67,29.91,10.0,Calm,Calm,-,N/A,,Clear,0,2012-09-06 06:53:00
2:53 AM,57.0,48.9,74,29.92,10.0,WSW,3.5,-,N/A,,Clear,240,2012-09-06 07:53:00
3:53 AM,55.9,48.9,77,29.92,10.0,Calm,Calm,-,N/A,,Clear,0,2012-09-06 08:53:00
4:53 AM,55.0,48.9,80,29.93,10.0,Calm,Calm,-,N/A,,Clear,0,2012-09-06 09:53:00
5:53 AM,53.1,48.0,83,29.94,10.0,SSW,5.8,-,N/A,,Clear,210,2012-09-06 10:53:00
6:53 AM,52.0,48.0,86,29.96,10.0,Calm,Calm,-,N/A,,Clear,0,2012-09-06 11:53:00
7:53 AM,55.0,48.9,80,29.97,10.0,SW,4.6,-,N/A,,Clear,230,2012-09-06 12:53:00
8:53 AM,60.1,48.9,67,29.97,10.0,SW,6.9,-,N/A,,Clear,230,2012-09-06 13:53:00
9:53 AM,68.0,48.9,50,29.97,10.0,WNW,4.6,-,N/A,,Clear,290,2012-09-06 14:53:00
10:53 AM,73.0,52.0,48,29.96,10.0,South,6.9,-,N/A,,Clear,180,2012-09-06 15:53:00
11:53 AM,75.9,50.0,40,29.95,10.0,South,5.8,-,N/A,,Clear,190,2012-09-06 16:53:00
12:53 PM,78.1,46.9,33,29.93,10.0,SW,8.1,-,N/A,,Clear,230,2012-09-06 17:53:00
1:53 PM,79.0,44.1,29,29.91,10.0,Variable,5.8,-,N/A,,Clear,0,2012-09-06 18:53:00
2:53 PM,80.1,44.1,28,29.87,10.0,SSW,6.9,-,N/A,,Clear,200,2012-09-06 19:53:00
3:53 PM,79.0,46.0,31,29.88,10.0,SSE,6.9,-,N/A,,Partly Cloudy,160,2012-09-06 20:53:00
4:53 PM,77.0,46.9,34,29.88,10.0,Calm,Calm,-,N/A,,Scattered Clouds,0,2012-09-06 21:53:00
5:53 PM,75.0,50.0,41,29.89,5.0,ESE,4.6,-,0.00,Rain,Light Rain,120,2012-09-06 22:53:00
6:53 PM,72.0,57.0,59,29.89,10.0,Calm,Calm,-,0.00,Rain,Light Rain,0,2012-09-06 23:53:00
7:53 PM,69.1,55.0,61,29.89,10.0,ENE,8.1,-,0.00,,Overcast,60,2012-09-07 00:53:00
8:53 PM,69.1,54.0,58,29.88,10.0,ENE,8.1,-,N/A,,Overcast,60,2012-09-07 01:53:00
9:53 PM,68.0,54.0,61,29.88,10.0,East,3.5,-,N/A,,Overcast,80,2012-09-07 02:53:00
10:53 PM,68.0,54.0,61,29.87,10.0,NE,5.8,-,N/A,,Overcast,40,2012-09-07 03:53:00
11:53 PM,66.9,55.0,66,29.87,10.0,NE,9.2,-,0.00,,Overcast,40,2012-09-07 04:53:00